Showing default

KUIPER-00018, 63733

Orbit data source: Space-Track

KUIPER-00018, 63733 is a payload satellite owned by Kuiper Systems (US) in LEO that was launched on Mon, 28 Apr 2025 UTC via an ATLAS V 551 launch vehicle from the Air Force Eastern Test Range (AFETR). Payload-class satellites include a variety of spacecraft equipped with specific instruments for various scientific and technological missions. These include communications satellites like Starlink; space stations such as the ISS; scientific satellites like the Hubble; Earth observation satellites from companies like Planet Labs, Umbra, and HawkEye 360; GPS; miniature CubeSats for education and research; and military/defense satellites.

Loading next visibility...
Identifier
63733, 2025-088K
Orbit
LEO
Country
Flag of USUS
Related business
Manufacturer
Kuiper Systems
Mission
Operational Commercial Communications
Bus & Motor
KUIPER, Unknown motor
Mass
~490 kg wet, ~490 kg dry
Launch date (UTC)
2025-04-28 (8 months ago)
Launch vehicle
ATLAS V 551
Launch site
Air Force Eastern Test Range (AFETR)
Object type
Payload
Rocket body
Debris
Shape & HBR
Box + 2 Pan, 3.4 m
Radar Cross Section
2.326 m², Large (>1 m²)

Expand to show TLE details & history
Last TLE update: 22 hours ago

TLE from 22 hours ago
0 KUIPER-00018
1 63733U 25088K   25348.76986595 -.00002115  00000-0 -24742-3 0  9995
2 63733  51.8994 116.0624 0014084 164.8625 195.2761 14.79961440 34912
Epoch: 2025-12-14T18:28Z
TLE epoch observation values (Epoch: 2025-12-14T18:28:36.418Z)
Latitude
-0.00004°
Longitude
115.23261°
Altitude
639.714 km
Speed
7.534 km/s
True Right ascension
07h 44m 14s
True Declination
0° 00' 00"
Sunlit
Object was in full shadow at epoch
Visualization orbit readout
Latitude
Unknown
Longitude
Unknown
Altitude
Unknown
Speed
Unknown
Apparent Right ascension
Unknown
Apparent Declination
Unknown
Sunlit
N/A
Visualization observer readout
Local Sidereal Time
15:12:31
Azimuth
Unknown
Elevation
Unknown
Doppler factor
Unknown
Orbital elements
Apogee altitude
639.767 km
Perigee altitude
620.027 km
Semi-major axis
7,008.034 km
Eccentricity
0.00141
Inclination
51.8994°
RAAN
116.0624°
Arg. of periapsis
164.8625°
True anomaly
195.23365°
Mean anomaly
195.2761°
Eccentric anomaly
195.25487°
Mean motion
3.69955 °/min
Orbital period
97.31 mins
BSTAR
-0.00024742
Loading maneuver chart data...
Computing Atmospheric mass density...
Loading historical data...
Loading historical data...
Loading historical data...
Loading historical data...
Loading historical data...
Loading historical data...
Loading historical data...

Documentation

Showing up to 5 results
|